This is the latest recevied weather packets stored in our database for station/object W4MSI. If no packets are shown the sender has not sent any weather packets the latest 10 day(s).
| Time | Temp. | Humidity | Pressure | Rain* | Wind** | Luminosity | Snow |
|---|---|---|---|---|---|---|---|
| 1777497946 | 20.56° C | 56% | 1012.7 hPa | 0 mm | - | 536 W/m² | - |
| 1777497641 | 20.56° C | 57% | 1012.7 hPa | 0 mm | - | 534 W/m² | - |
| 1777497338 | 21.11° C | 57% | 1012.9 hPa | 0 mm | - | 545 W/m² | - |
| 1777497033 | 20° C | 62% | 1012.8 hPa | 0 mm | - | 555 W/m² | - |
| 1777496731 | 20° C | 61% | 1012.9 hPa | 0 mm | - | 193 W/m² | - |
| 1777496427 | 20° C | 65% | 1012.7 hPa | 0 mm | - | 247 W/m² | - |
| 1777496124 | 20° C | 63% | 1012.6 hPa | 0 mm | - | 167 W/m² | - |
| 1777495820 | 19.44° C | 67% | 1012.8 hPa | 0 mm | - | 460 W/m² | - |
| 1777495516 | 19.44° C | 65% | 1012.9 hPa | 0 mm | - | 648 W/m² | - |
| 1777495212 | 20.56° C | 63% | 1012.8 hPa | 0 mm | - | 190 W/m² | - |
| 1777494910 | 21.11° C | 60% | 1012.9 hPa | 0 mm | - | 360 W/m² | - |
| 1777494607 | 21.11° C | 62% | 1012.9 hPa | 0 mm | - | 738 W/m² | - |
| 1777494304 | 20.56° C | 58% | 1013.2 hPa | 0 mm | - | 690 W/m² | - |
| 1777494000 | 21.11° C | 62% | 1013.2 hPa | 0 mm | - | 257 W/m² | - |
| 1777493699 | 21.11° C | 59% | 1013.2 hPa | 0 mm | - | 720 W/m² | - |
| 1777493396 | 21.11° C | 61% | 1013.5 hPa | 0 mm | - | 737 W/m² | - |
| 1777493092 | 20.56° C | 64% | 1013.6 hPa | 0 mm | - | 700 W/m² | - |
| 1777492789 | 20.56° C | 60% | 1013.5 hPa | 0 mm | - | 765 W/m² | - |
| 1777492484 | 20° C | 66% | 1013.8 hPa | 0 mm | - | 801 W/m² | - |
| 1777492181 | 20.56° C | 61% | 1013.7 hPa | 0 mm | - | 324 W/m² | - |
| 1777491878 | 21.11° C | 61% | 1013.9 hPa | 0 mm | - | 433 W/m² | - |
| 1777491574 | 20.56° C | 62% | 1013.6 hPa | 0 mm | - | 400 W/m² | - |
| 1777491272 | 20.56° C | 65% | 1013.7 hPa | 0 mm | - | 790 W/m² | - |
| 1777490969 | 20.56° C | 62% | 1013.7 hPa | 0 mm | - | 949 W/m² | - |
| 1777490664 | 20° C | 67% | 1013.8 hPa | 0 mm | - | 861 W/m² | - |
* Rain latest hour (hover to see other rain measurements)
** Current wind speed in m/s (hover to see current wind gust speed)